Regional Weather Roundup
Issued by NWS

Home | Current Version | Previous Version | Text Only | Print | Product List | Glossary Off
Versions: 1 2 3 4 5 6 7 8 9 10 11 12 13 14 15 16 17 18 19 20 21 22 23 24 25 26 27 28 29 30 31 32 33 34 35 36 37 38 39 40 41 42 43 44 45 46 47 48 49 50

000
ASUS43 KFSD 270810
RWRSD

WEATHER ROUNDUP FOR SOUTH DAKOTA
NATIONAL WEATHER SERVICE SIOUX FALLS SD
300 AM CDT WED AUG 27 2014

NOTE: "FAIR" INDICATES FEW OR NO CLOUDS BELOW 12,000 FEET WITH NO
SIGNIFICANT WEATHER AND/OR OBSTRUCTIONS TO VISIBILITY.


SDZ001>005-009-010-012>017-270900-
NORTHWEST AND NORTH CENTRAL SOUTH DAKOTA

CITY           SKY/WX    TMP DP  RH WIND       PRES   REMARKS
BUFFALO          N/A     52  50  93 NE6       30.10F
FAITH            N/A     52  51  97 E6        30.15F
MOBRIDGE       CLEAR     54  52  93 CALM      30.14F
$$

SDZ012>016-024>037-041>051-057-063-072>074-270900-
SOUTHWEST AND SOUTH CENTRAL SOUTH DAKOTA

CITY           SKY/WX    TMP DP  RH WIND       PRES   REMARKS
RAPID CTY ARPT MOCLDY    59  53  80 E5        30.16S
PIERRE         MOCLDY    58  55  90 E8        30.11F
CUSTER         CLOUDY    58  54  86 W3        30.25F
ELLSWORTH AFB  MOCLDY    62  54  76 SE3       30.16S
PHILIP         MOCLDY    57  54  89 NE9       30.12R
PINE RIDGE     FOG       55  55 100 MISG      30.14S VSB 1/2
WINNER         CLOUDY    64  61  90 SE9       30.12S
$$

SDZ004>011-016>023-039-040-270900-
NORTHEAST SOUTH DAKOTA

CITY           SKY/WX    TMP DP  RH WIND       PRES   REMARKS
ABERDEEN       CLOUDY    58  56  93 E5        30.17F
WATERTOWN      CLEAR     54  53  97 NE5       30.18S
SISSETON         N/A     59  58  96 CALM      30.18S
$$

SDZ017-020-022-023-036>040-048>070-270900-
SOUTHEAST SOUTH DAKOTA

CITY           SKY/WX    TMP DP  RH WIND       PRES   REMARKS
SIOUX FALLS    PTCLDY    59  57  93 NE5       30.17F
HURON          PTCLDY    59  57  93 SE6       30.14F
CHAMBERLAIN    PTCLDY    61  59  93 SE7       30.12F
MITCHELL       PTCLDY    59  58  96 E3        30.15S
YANKTON        CLEAR     59  57  94 E7        30.14F
$$

ABBREVIATIONS USED IN REMARKS
   TC - TEMPERATURE IN CELSIUS
  WCI - WIND CHILL INDEX
   HX - HEAT INDEX
  VSB - VISIBILITY



USA.gov is the U.S. government's official web portal to all federal, state and local government web resources and services.